[[{"header":{"parameterUnit":"m.s-1","parameterCategory":1,"la1":30.2991,"la2":30.254,"lo1":-89.0895,"lo2":-89.0444,"dy":0.0017,"dx":0.0017,"nx":28,"ny":28,"refTime":"2023-07-19T21:00:00:Z","depth":0,"parameterNumber":2,"parameterNumberName":"U-component_of_WINDS"},"data":[0,0,0,0,0,0,0,0,0,0,0,0,0,0,0,0,0,0,0,0,0,0,0,0,0,0,0,0,0,0,0,0,0,0,0,0,0,0,0,0,0,0,0,0,0,0,0,0,0,0,0,0,0,0,0,0,0,0,4.1961,4.1961,0,4.1958,4.1958,4.1958,4.1865,4.1863,4.1861,4.1858,4.1856,4.1858,4.186,0,0,0,0,0,0,0,0,0,0,0,0,0,4.1886,4.1887,4.1961,4.1961,4.1961,4.1958,4.1958,4.1958,4.1866,4.1863,4.186,4.1857,4.1855,4.1858,4.186,0,0,0,0,0,0,0,0,0,0,0,0,0,4.1904,4.1888,4.1961,4.1915,4.191,4.1958,4.1958,4.1958,4.1866,4.1863,4.1859,4.1856,4.1854,4.1857,4.1861,4.1952,0,0,4.187,4.1872,0,0,0,0,0,0,0,0,4.1903,4.1907,4.1922,4.1918,4.1913,4.1908,4.193,4.1956,4.1867,4.1883,4.1858,4.1854,4.1876,4.1877,4.1885,4.1952,4.1952,4.1871,4.1873,4.1874,4.1875,0,0,0,0,0,0,0,4.1902,4.1907,4.196,4.1922,4.1917,4.1893,4.1892,4.1935,4.19,4.1882,4.1875,4.1876,4.1873,4.1882,4.1884,4.1952,4.1871,4.1873,4.1875,4.1877,4.209,4.2094,0,0,0,0,0,0,4.1907,4.1906,4.196,4.196,4.1899,4.1898,4.1896,4.1914,4.1899,4.1893,4.1879,4.1871,4.1878,4.188,4.1884,4.1986,4.1874,4.1877,4.1879,4.2086,4.2091,4.2095,0,0,0,0,0,0,4.1906,4.1913,4.196,4.1931,4.1935,4.1903,4.1923,4.1915,4.1924,4.1897,4.189,4.1894,4.1875,4.1879,4.1935,4.1985,4.1879,4.1881,4.2082,4.2088,4.2093,4.2195,0,0,0,0,0,0,4.1904,4.1913,4.1948,4.1933,4.1937,4.2012,4.1926,4.1918,4.193,4.192,4.1909,4.1904,4.1873,4.193,4.1938,4.1987,4.1884,4.2077,4.2085,4.2091,4.2187,4.2203,4.2217,0,0,0,0,0,4.1902,4.1978,4.195,4.1957,4.198,4.2015,4.2018,4.198,4.1934,4.1968,4.1951,4.1905,4.1979,4.1937,4.1945,4.1996,4.2074,4.2082,4.2091,4.218,4.22,4.2217,0,0,0,0,0,0,4.2001,4.1975,4.1944,4.2018,4.2019,4.2,4.2042,4.2003,4.2018,4.2008,4.1961,4.1959,4.2021,4.2015,4.1968,4.2082,4.2018,4.2028,4.2083,4.2102,4.2117,4.2116,4.1887,0,0,0,0,0,4.2032,4.2063,4.2038,4.2106,4.2108,4.2075,4.2089,4.2059,4.2059,4.2059,4.2046,4.2047,4.207,4.2086,4.2107,4.2186,4.2181,4.2225,4.2241,4.2253,4.2262,4.2299,4.2317,4.2122,4.2122,4.2122,0,0,4.2095,4.2085,4.2107,4.2125,4.2123,4.2154,4.2076,4.2114,4.2136,4.2065,4.2115,4.2106,4.2104,4.2171,4.22,4.2167,4.2315,4.2264,4.2274,4.2276,4.231,4.2328,4.2345,4.2128,4.2127,4.2126,0,0,4.2226,4.2223,4.2276,4.2275,4.2271,4.2249,4.2262,4.2247,4.2238,4.2288,4.2234,4.226,4.2302,4.2301,4.2307,4.2435,4.2392,4.2443,4.2522,4.2559,4.2574,4.2587,4.2629,4.2645,4.2452,4.2453,4.2453,0,4.2305,4.235,4.2309,4.2348,4.2356,4.2293,4.2345,4.2346,4.235,4.2357,4.2321,4.2369,4.2364,4.2428,4.2459,4.2467,4.2478,4.2443,4.2575,4.2588,4.26,4.2639,4.2655,4.2459,4.2458,4.2457,4.2457,0,4.2445,4.2477,4.2521,4.2524,4.2537,4.2584,4.2548,4.2567,4.2536,4.2517,4.2567,4.2558,4.2574,4.2587,4.2559,4.2647,4.2626,4.2584,4.2518,4.2625,4.2661,4.2676,4.2467,4.2465,4.2463,4.2462,0,0,4.2637,4.2615,4.2632,4.263,4.2622,4.2645,4.2688,4.2702,4.2717,4.2723,4.2755,4.2791,4.275,4.2757,4.2727,4.2761,4.2857,4.2713,4.2713,4.2737,4.2949,4.2978,4.2997,4.283,4.2833,4.2835,4.2948,0,4.276,4.283,4.2793,4.2867,4.2894,4.2834,4.287,4.2868,4.2852,4.2872,4.2854,4.2878,4.2825,4.2828,4.2858,4.2839,4.2899,4.2831,4.2857,4.2859,4.2856,4.3016,4.3047,4.3154,4.2962,4.2965,4.2966,0,4.2912,4.292,4.2998,4.298,4.299,4.3023,4.3031,4.3052,4.3048,4.3033,4.3039,4.3001,4.304,4.2978,4.3029,4.2984,4.2993,4.2985,4.2989,4.2986,4.2916,4.3014,4.3188,4.3202,4.2989,4.2987,4.2985,0,4.3038,4.307,4.3119,4.3121,4.3103,4.3127,4.3121,4.3113,4.3123,4.3131,4.3136,4.3149,4.3155,4.3166,4.3131,4.309,4.3186,4.3122,4.3172,4.3173,4.3193,4.3191,4.3366,4.3206,4.3205,4.3205,4.3205,0,4.3176,4.3225,4.3175,4.3205,4.3256,4.3213,4.3266,4.3253,4.3246,4.3271,4.3222,4.3247,4.3202,4.3222,4.3196,4.324,4.3245,4.3232,4.3224,4.3234,4.3235,4.3236,4.3227,4.3209,4.3208,4.3208,4.3207,0,4.3325,4.3295,4.3343,4.3321,4.3317,4.3355,4.3336,4.3362,4.3342,4.3374,4.338,4.3348,4.3368,4.3336,4.3354,4.3336,4.3396,4.3379,4.3397,4.339,4.3441,4.3435,4.362,4.364,4.3471,4.3473,4.3474,0,4.3413,4.3449,4.343,4.3442,4.3438,4.3461,4.3469,4.3429,4.344,4.3436,4.3462,4.3479,4.3489,4.3525,4.3503,4.3516,4.3495,4.3559,4.3497,4.3505,4.3491,4.3488,4.3489,4.3571,4.3573,4.3575,4.3576,0,4.3571,4.3553,4.3568,4.3577,4.3588,4.3594,4.3595,4.3609,4.3565,4.358,4.36,4.3608,4.3625,4.3641,4.3648,4.3641,4.36,4.3596,4.3608,4.3617,4.3624,4.3616,4.3427,4.3591,4.359,4.3589,4.3588,4.3587,4.3689,4.3716,4.3706,4.3723,4.3719,4.3721,4.3743,4.3725,4.374,4.375,4.3725,4.375,4.3743,4.3748,4.3745,4.3763,4.3735,4.3753,4.3757,4.3761,4.3767,4.3624,4.3765,4.3765,4.3764,4.3764,4.3763,0,4.384,4.383,4.3847,4.3849,4.3862,4.3823,4.3822,4.3835,4.3857,4.3854,4.3865,4.3886,4.3901,4.388,4.3891,4.3909,4.3891,4.3913,4.3909,4.3907,4.3794,4.378,4.3927,4.3927,4.3927,4.3927,4.3927,4.3927,4.392,4.3962,4.3943,4.3982,4.3972,4.3994,4.3997,4.3998,4.3994,4.4019,4.4031,4.4017,4.4006,4.4015,4.4026,4.402,4.4024,4.4052,4.4039,4.3932,4.3916,4.39,4.3887,4.4055,4.4055,4.415,4.4151,4.4152]},{"header":{"parameterUnit":"m.s-1","parameterCategory":1,"la1":30.2991,"la2":30.254,"lo1":-89.0895,"lo2":-89.0444,"dy":0.0017,"dx":0.0017,"nx":28,"ny":28,"refTime":"2023-07-19T21:00:00:Z","depth":0,"parameterNumber":3,"parameterNumberName":"V-component_of_WINDS"},"data":[0,0,0,0,0,0,0,0,0,0,0,0,0,0,0,0,0,0,0,0,0,0,0,0,0,0,0,0,0,0,0,0,0,0,0,0,0,0,0,0,0,0,0,0,0,0,0,0,0,0,0,0,0,0,0,0,0,0,4.4257,4.4258,0,4.4346,4.4347,4.4348,4.4312,4.431,4.4308,4.4306,4.4394,4.4398,4.4402,0,0,0,0,0,0,0,0,0,0,0,0,0,4.4051,4.4055,4.4257,4.4258,4.4259,4.4346,4.4347,4.4348,4.4313,4.431,4.4307,4.4305,4.4392,4.4397,4.4402,0,0,0,0,0,0,0,0,0,0,0,0,0,4.414,4.4057,4.4257,4.4252,4.4252,4.4346,4.4347,4.4349,4.4313,4.431,4.4307,4.4304,4.439,4.4397,4.4403,4.4505,0,0,4.4423,4.4425,0,0,0,0,0,0,0,0,4.4135,4.4148,4.4252,4.4252,4.4253,4.4315,4.4306,4.4401,4.4314,4.429,4.4306,4.4302,4.437,4.4378,4.4401,4.4509,4.4513,4.4423,4.4427,4.443,4.4432,0,0,0,0,0,0,0,4.4129,4.4144,4.4292,4.4253,4.4254,4.4244,4.4253,4.4324,4.4346,4.4292,4.4289,4.4301,4.4369,4.4395,4.4403,4.4514,4.4423,4.4429,4.4433,4.4435,4.4708,4.4711,0,0,0,0,0,0,4.4123,4.4139,4.4289,4.4295,4.4185,4.425,4.426,4.4298,4.4345,4.435,4.4303,4.4299,4.4385,4.4395,4.4406,4.4527,4.443,4.4436,4.4439,4.4705,4.4709,4.4712,0,0,0,0,0,0,4.4119,4.4137,4.4286,4.4216,4.4234,4.4257,4.43,4.4302,4.4327,4.4354,4.4357,4.4326,4.4383,4.4397,4.448,4.453,4.4439,4.4444,4.4701,4.4706,4.4711,4.4772,0,0,0,0,0,0,4.4113,4.4136,4.4176,4.4218,4.4238,4.4361,4.4303,4.4306,4.4339,4.4333,4.4376,4.438,4.4382,4.4471,4.4487,4.4537,4.4449,4.4696,4.4703,4.4709,4.4765,4.4778,4.4789,0,0,0,0,0,4.4106,4.419,4.4179,4.4197,4.4289,4.4364,4.4375,4.4377,4.4343,4.4383,4.4399,4.4378,4.4522,4.448,4.4497,4.455,4.4693,4.4701,4.4709,4.476,4.4776,4.4789,0,0,0,0,0,0,4.4153,4.4195,4.4183,4.4283,4.432,4.4357,4.4408,4.4394,4.4441,4.4434,4.4433,4.4443,4.4529,4.4548,4.4501,4.465,4.4602,4.4613,4.4635,4.465,4.4662,4.4656,4.4455,0,0,0,0,0,4.4175,4.4233,4.4266,4.435,4.437,4.4386,4.4418,4.4416,4.4454,4.447,4.4493,4.4529,4.4582,4.4617,4.4668,4.4768,4.4775,4.4812,4.4824,4.4834,4.4844,4.4896,4.4913,4.4738,4.4738,4.4737,0,0,4.4221,4.4251,4.4288,4.4361,4.4389,4.4448,4.4399,4.4464,4.4507,4.4479,4.456,4.4578,4.4618,4.471,4.4752,4.4728,4.4894,4.4844,4.4851,4.4856,4.4906,4.4922,4.4937,4.4743,4.4742,4.4741,0,0,4.4334,4.4363,4.4436,4.4466,4.451,4.452,4.4537,4.4577,4.4588,4.4669,4.4649,4.4699,4.4791,4.482,4.4847,4.4969,4.4951,4.4985,4.5048,4.5099,4.5113,4.5125,4.5168,4.5183,4.4995,4.4995,4.4995,0,4.4385,4.4474,4.4475,4.4541,4.4573,4.4551,4.4624,4.4652,4.471,4.4732,4.4705,4.4819,4.4844,4.4942,4.4972,4.4995,4.5013,4.4981,4.5111,4.5123,4.5135,4.5175,4.5191,4.4999,4.4999,4.4998,4.4998,0,4.4534,4.4596,4.4649,4.4707,4.4744,4.4813,4.4823,4.4861,4.4855,4.4867,4.4948,4.4978,4.5034,4.5056,4.5052,4.5153,4.5137,4.5111,4.5062,4.5155,4.5193,4.5209,4.5005,4.5003,4.5002,4.5001,0,0,4.4681,4.4737,4.4756,4.4781,4.4828,4.4874,4.4941,4.4996,4.5028,4.5068,4.5123,4.52,4.5176,4.5206,4.5204,4.5249,4.5342,4.5217,4.5217,4.5238,4.5454,4.5474,4.5492,4.533,4.5333,4.5335,4.5451,0,4.4797,4.4916,4.4918,4.5027,4.5083,4.5062,4.512,4.5153,4.5166,4.5213,4.5226,4.5281,4.5245,4.5263,4.5307,4.5322,4.5385,4.5313,4.538,4.5382,4.5371,4.5512,4.5533,4.5641,4.5466,4.5468,4.547,0,4.495,4.4995,4.511,4.5146,4.517,4.5222,4.5272,4.5318,4.5355,4.536,4.5394,4.5384,4.545,4.5399,4.5489,4.544,4.5467,4.5478,4.5482,4.5489,4.5432,4.5521,4.5675,4.5691,4.5494,4.5492,4.549,0,4.5044,4.5134,4.5213,4.5235,4.528,4.5317,4.5337,4.5371,4.5403,4.5446,4.5467,4.5516,4.5543,4.5581,4.5584,4.5547,4.5674,4.5624,4.5679,4.5679,4.5707,4.5705,4.5867,4.5725,4.5725,4.5724,4.5724,0,4.5174,4.5244,4.5256,4.5305,4.5383,4.5383,4.546,4.5476,4.5506,4.5556,4.5541,4.5588,4.5589,4.5637,4.564,4.5713,4.5725,4.573,4.573,4.5732,4.5731,4.575,4.5742,4.5729,4.5728,4.5727,4.5726,0,4.5293,4.5304,4.5389,4.5424,4.5435,4.549,4.552,4.5565,4.5575,4.5639,4.5654,4.567,4.5725,4.5732,4.5796,4.5798,4.5886,4.5878,4.5874,4.5873,4.5927,4.5922,4.6106,4.613,4.5973,4.5974,4.5976,0,4.5375,4.5429,4.547,4.5503,4.5525,4.5579,4.5612,4.5613,4.5648,4.5693,4.5732,4.5786,4.583,4.5918,4.5934,4.5983,4.5976,4.6037,4.5983,4.5982,4.5976,4.5972,4.5977,4.6047,4.6049,4.605,4.6051,0,4.5519,4.5521,4.557,4.5621,4.5661,4.57,4.5737,4.5765,4.5771,4.581,4.5867,4.59,4.5966,4.6019,4.6066,4.6085,4.6069,4.6068,4.6083,4.6086,4.6081,4.6084,4.5902,4.6064,4.6063,4.6062,4.6061,4.6061,4.5621,4.5668,4.5704,4.5758,4.5786,4.5821,4.5865,4.5881,4.5929,4.5983,4.598,4.6043,4.6075,4.6138,4.616,4.6207,4.6187,4.6209,4.6215,4.622,4.6225,4.6074,4.6216,4.6215,4.6215,4.6215,4.6214,0,4.5764,4.5786,4.5836,4.5889,4.5931,4.5913,4.5952,4.5988,4.6044,4.6077,4.6119,4.6184,4.6234,4.6254,4.6303,4.6337,4.6331,4.635,4.6348,4.6352,4.6241,4.6223,4.6354,4.6354,4.6354,4.6354,4.6354,4.6354,4.5843,4.592,4.5927,4.6017,4.6037,4.6099,4.6123,4.6154,4.618,4.6253,4.6296,4.6309,4.6336,4.6386,4.6432,4.6436,4.6454,4.6477,4.6478,4.6374,4.636,4.6346,4.6329,4.6481,4.6481,4.6584,4.6585,4.6586]}]]